Location: San Martino di Castrozza
(46.2667°N, 11.8000°E)
Time: 02:46:17
(UTC+00:00)

SL-16 R/B - Pass Details

Date: 23 April 2021
Orbit: 985 x 1007 km, 99.5° (Epoch: 15 May)

Event Time Altitude Azimuth Distance (km) Brightness Sun altitude
Exits shadow 00:36:28 51° 134° (SE) 1,241 2.8 -28.1°
Maximum altitude 00:38:01 71° 71° (ENE) 1,063 2.7 -28.0°
Drops below altitude 10° 00:44:16 10° 349° (NNW) 2,794 5.5 -27.6°
Sets 00:46:46 0° 347° (NNW) 3,748 6.3 -27.4°
